This is the latest recevied weather packets stored in our database for station/object AB4KY. If no packets are shown the sender has not sent any weather packets the latest 10 day(s).
| Time | Temp. | Humidity | Pressure | Rain* | Wind** | Luminosity | Snow |
|---|---|---|---|---|---|---|---|
| 1787840675 | 25° C | 85% | 1013.8 hPa | 0 mm | - | 467 W/m² | - |
| 1787840364 | 24.44° C | 84% | 1013.5 hPa | 0 mm | - | 420 W/m² | - |
| 1787840060 | 25.56° C | 83% | 1013.7 hPa | 0 mm | - | 421 W/m² | - |
| 1787839755 | 24.44° C | 84% | 1013.8 hPa | 0 mm | - | 387 W/m² | - |
| 1787839449 | 24.44° C | 85% | 1014 hPa | 0 mm | - | 351 W/m² | - |
| 1787839149 | 24.44° C | 86% | 1013.9 hPa | 0 mm | - | 356 W/m² | - |
| 1787838847 | 25° C | 83% | 1013.8 hPa | 0 mm | - | 292 W/m² | - |
| 1787838542 | 24.44° C | 86% | 1013.7 hPa | 0 mm | - | 317 W/m² | - |
| 1787838241 | 23.89° C | 86% | 1013.7 hPa | 0 mm | - | 280 W/m² | - |
| 1787837940 | 23.89° C | 88% | 1013.6 hPa | 0 mm | - | 257 W/m² | - |
| 1787837640 | 22.78° C | 92% | 1013.6 hPa | 0 mm | - | 213 W/m² | - |
| 1787837334 | 21.67° C | 95% | 1013.5 hPa | 0 mm | - | 250 W/m² | - |
| 1787837030 | 21.11° C | 99% | 1013.6 hPa | 0 mm | - | 203 W/m² | - |
| 1787836729 | 20° C | 99% | 1013.6 hPa | 0 mm | - | 221 W/m² | - |
| 1787836424 | 20° C | 99% | 1013.6 hPa | 0 mm | - | 181 W/m² | - |
| 1787836119 | 20° C | 99% | 1013.3 hPa | 0 mm | - | 51 W/m² | - |
| 1787835815 | 20° C | 99% | 1013.4 hPa | 0 mm | - | 62 W/m² | - |
| 1787835514 | 19.44° C | 99% | 1013.4 hPa | 0 mm | - | 48 W/m² | - |
| 1787835216 | 19.44° C | 99% | 1013.4 hPa | 0 mm | - | 45 W/m² | - |
| 1787834910 | 18.89° C | 99% | 1013.5 hPa | 0 mm | - | 43 W/m² | - |
| 1787834609 | 18.89° C | 99% | 1013.3 hPa | 0 mm | - | 39 W/m² | - |
| 1787834304 | 18.89° C | 99% | 1013.5 hPa | 0 mm | - | 38 W/m² | - |
| 1787834000 | 18.89° C | 99% | 1013.5 hPa | 0 mm | - | 37 W/m² | - |
| 1787833695 | 18.33° C | 99% | 1013.3 hPa | 0 mm | - | 34 W/m² | - |
| 1787833390 | 18.33° C | 99% | 1013.5 hPa | 0 mm | - | 32 W/m² | - |
* Rain latest hour (hover to see other rain measurements)
** Current wind speed in m/s (hover to see current wind gust speed)